Regional Weather Roundup
Issued by NWS

Home | Current Version | Previous Version | Graphics & Text | Print | Product List | Glossary On
Versions: 1 2 3 4 5 6 7 8 9 10 11 12 13 14 15 16 17 18 19 20 21 22 23 24 25 26 27 28 29 30 31 32 33 34 35 36 37 38 39 40 41 42 43 44 45 46 47 48 49 50
719
ASUS43 KLMK 300702
RWRKY
KENTUCKY REGIONAL WEATHER ROUNDUP
NATIONAL WEATHER SERVICE LOUISVILLE KY
300 AM EDT THU MAR 30 2017

NOTE "FAIR" INDICATES FEW OR NO CLOUDS BELOW 12,000 FEET
WITH NO SIGNIFICANT WEATHER AND/OR OBSTRUCTIONS TO VISIBILITY.

KYZ001>023-026-027-061>063-070>075-300800-
WESTERN AND SOUTH CENTRAL KENTUCKY

CITY           SKY/WX    TMP DP  RH WIND       PRES   REMARKS
PADUCAH        CLOUDY    71  55  56 S12       29.73F
HENDERSON      PTCLDY    61  52  72 SE9       29.79F
OWENSBORO      CLOUDY    62  53  72 SE9       29.82F
HOPKINSVILLE   CLOUDY    70  59  67 SE7       29.81F
BOWLING GREEN  CLOUDY    64  54  69 NE3       29.86F
GLASGOW        NOT AVBL
$$

KYZ024-025-028>034-038-045-046-053-300800-
NORTH CENTRAL KENTUCKY

CITY           SKY/WX    TMP DP  RH WIND       PRES   REMARKS
LOUISVILLE/SDF CLOUDY    56  44  64 E6        29.88F
LOUISVILLE/LOU CLOUDY    56  46  69 E5        29.89F
FORT KNOX      CLOUDY    56  48  74 E8        29.86F
$$

KYZ035>037-039>044-047>052-055>060-089>105-300800-
NORTHEAST KENTUCKY

CITY           SKY/WX    TMP DP  RH WIND       PRES   REMARKS
LEXINGTON      CLOUDY    53  44  71 SE12      29.93F
COVINGTON      MOCLDY    53  44  71 SE10      29.94F
FRANKFORT      MOCLDY    53  44  71 E8        29.91F
$$

KYZ054-064>069-076>088-106>120-300800-
SOUTHEAST KENTUCKY

CITY           SKY/WX    TMP DP  RH WIND       PRES   REMARKS
JACKSON        CLOUDY    51  45  79 VRB5      29.95F
LONDON         CLOUDY    55  47  74 N3        29.94F
SOMERSET       CLOUDY    57  46  67 E3        29.94S
MIDDLESBORO    CLEAR     51  49  95 CALM      29.96F
MONTICELLO     PTSUNNY   56  52  86 CALM      29.94S
$$





USA.gov is the U.S. government's official web portal to all federal, state and local government web resources and services.